WAT3630 SGAS-SCEL

Flight info

Callsign WAT3630
Flight time 2h 23m
Altitude 36000
Route ARPAS ARPAS UZ124 SIS UL531 CBA UZ105 UMKAL UMKAL7C
Aircraft A21N/M-SDE3FGHIRWY/LB1

Departure

Time 2026-04-16 22:24
Airport Silvio Pettirossi International Airport (SGAS)

Arrival

Time 2026-04-17 00:47
Airport Comodoro Arturo Merino Benítez International Airport (SCEL)
Time Latitude Longitude Altitude Speed Heading
2026-04-16 22:00 -25.24181 -57.51530 293 ft 0 kts 122°
2026-04-16 22:14 -25.24179 -57.51535 292 ft 1 kts 122°
2026-04-16 22:14 -25.24173 -57.51544 292 ft 2 kts 115°
2026-04-16 22:15 -25.24171 -57.51561 291 ft 2 kts 80°
2026-04-16 22:15 -25.24176 -57.51576 290 ft 2 kts 52°
2026-04-16 22:15 -25.24188 -57.51587 290 ft 2 kts 25°
2026-04-16 22:15 -25.24194 -57.51590 290 ft 1 kts 12°
2026-04-16 22:16 -25.24198 -57.51591 290 ft 0 kts 17°
2026-04-16 22:18 -25.24196 -57.51590 289 ft 0 kts 17°
2026-04-16 22:18 -25.24188 -57.51588 289 ft 1 kts 17°
2026-04-16 22:19 -25.24171 -57.51585 289 ft 3 kts 359°
2026-04-16 22:19 -25.24136 -57.51592 288 ft 7 kts 346°
2026-04-16 22:19 -25.24075 -57.51613 285 ft 11 kts 342°
2026-04-16 22:19 -25.23994 -57.51654 282 ft 14 kts 331°
2026-04-16 22:20 -25.23885 -57.51675 278 ft 16 kts 11°
2026-04-16 22:20 -25.23770 -57.51647 277 ft 17 kts 12°
2026-04-16 22:20 -25.23648 -57.51620 275 ft 18 kts 11°
2026-04-16 22:20 -25.23519 -57.51592 273 ft 19 kts 13°
2026-04-16 22:21 -25.23388 -57.51557 272 ft 19 kts 13°
2026-04-16 22:21 -25.23255 -57.51524 271 ft 19 kts 12°
2026-04-16 22:21 -25.23120 -57.51492 268 ft 20 kts 13°
2026-04-16 22:21 -25.22984 -57.51457 268 ft 19 kts 13°
2026-04-16 22:22 -25.22849 -57.51421 267 ft 19 kts 14°
2026-04-16 22:22 -25.22716 -57.51385 266 ft 19 kts 13°
2026-04-16 22:22 -25.22581 -57.51379 263 ft 19 kts 333°
2026-04-16 22:22 -25.22539 -57.51512 259 ft 20 kts 254°
2026-04-16 22:23 -25.22639 -57.51579 258 ft 16 kts 203°
2026-04-16 22:23 -25.22828 -57.51634 260 ft 58 kts 192°
2026-04-16 22:23 -25.23477 -57.51791 267 ft 128 kts 193°
2026-04-16 22:23 -25.24548 -57.52050 322 ft 179 kts 194°
2026-04-16 22:24 -25.25768 -57.52358 927 ft 182 kts 193°
2026-04-16 22:24 -25.26995 -57.52652 1729 ft 181 kts 193°
2026-04-16 22:24 -25.28234 -57.52946 2407 ft 186 kts 193°
2026-04-16 22:24 -25.29537 -57.53257 2851 ft 202 kts 193°
2026-04-16 22:25 -25.30986 -57.53606 3297 ft 219 kts 194°
2026-04-16 22:25 -25.32547 -57.53984 3654 ft 242 kts 194°
2026-04-16 22:25 -25.34232 -57.54443 4223 ft 255 kts 202°
2026-04-16 22:25 -25.35661 -57.55561 4924 ft 258 kts 233°
2026-04-16 22:26 -25.36422 -57.57381 5542 ft 267 kts 259°
2026-04-16 22:26 -25.36769 -57.59389 6318 ft 270 kts 259°
2026-04-16 22:26 -25.37234 -57.61386 7076 ft 274 kts 247°
2026-04-16 22:26 -25.38384 -57.63082 7808 ft 280 kts 221°
2026-04-16 22:27 -25.39986 -57.64299 8582 ft 283 kts 214°
2026-04-16 22:27 -25.41675 -57.65415 9292 ft 286 kts 214°
2026-04-16 22:27 -25.43394 -57.66550 9969 ft 289 kts 214°
2026-04-16 22:27 -25.45139 -57.67730 10464 ft 299 kts 215°
2026-04-16 22:28 -25.46948 -57.68977 10767 ft 316 kts 215°
2026-04-16 22:28 -25.48869 -57.70318 11055 ft 332 kts 215°
2026-04-16 22:28 -25.50870 -57.71723 11326 ft 348 kts 215°
2026-04-16 22:28 -25.52967 -57.73199 11595 ft 363 kts 215°
2026-04-16 22:29 -25.55111 -57.74710 12007 ft 372 kts 215°
2026-04-16 22:29 -25.57304 -57.76256 12581 ft 375 kts 215°
2026-04-16 22:29 -25.59513 -57.77819 13137 ft 379 kts 215°
2026-04-16 22:29 -25.61745 -57.79397 13682 ft 382 kts 215°
2026-04-16 22:30 -25.64005 -57.80999 14233 ft 385 kts 215°
2026-04-16 22:30 -25.66242 -57.82585 14790 ft 388 kts 215°
2026-04-16 22:30 -25.68521 -57.84202 15346 ft 390 kts 215°
2026-04-16 22:30 -25.70835 -57.85843 15900 ft 393 kts 215°
2026-04-16 22:31 -25.73139 -57.87477 16444 ft 395 kts 215°
2026-04-16 22:31 -25.75464 -57.89148 16988 ft 398 kts 216°
2026-04-16 22:31 -25.77761 -57.90816 17510 ft 400 kts 215°
2026-04-16 22:31 -25.80118 -57.92533 18012 ft 404 kts 216°
2026-04-16 22:32 -25.82466 -57.94241 18517 ft 406 kts 216°
2026-04-16 22:32 -25.84837 -57.95966 19055 ft 407 kts 216°
2026-04-16 22:32 -25.87185 -57.97676 19568 ft 409 kts 216°
2026-04-16 22:32 -25.89588 -57.99429 20069 ft 411 kts 216°
2026-04-16 22:33 -25.91973 -58.01165 20549 ft 413 kts 216°
2026-04-16 22:33 -25.94394 -58.02931 21035 ft 415 kts 217°
2026-04-16 22:33 -25.96795 -58.04684 21484 ft 418 kts 217°
2026-04-16 22:33 -25.99235 -58.06467 21935 ft 420 kts 217°
2026-04-16 22:34 -26.01698 -58.08267 22407 ft 421 kts 217°
2026-04-16 22:34 -26.04125 -58.10042 22857 ft 423 kts 217°
2026-04-16 22:34 -26.06591 -58.11845 23322 ft 424 kts 217°
2026-04-16 22:34 -26.09058 -58.13650 23784 ft 426 kts 217°
2026-04-16 22:35 -26.11551 -58.15478 24217 ft 428 kts 218°
2026-04-16 22:35 -26.14031 -58.17298 24648 ft 429 kts 218°
2026-04-16 22:35 -26.16546 -58.19142 25036 ft 432 kts 218°
2026-04-16 22:35 -26.19049 -58.20979 25450 ft 433 kts 218°
2026-04-16 22:36 -26.21612 -58.22810 25854 ft 436 kts 217°
2026-04-16 22:36 -26.24191 -58.24539 26234 ft 438 kts 216°
2026-04-16 22:36 -26.26830 -58.26291 26600 ft 440 kts 216°
2026-04-16 22:36 -26.29438 -58.28020 27033 ft 439 kts 216°
2026-04-16 22:37 -26.32079 -58.29768 27548 ft 437 kts 217°
2026-04-16 22:37 -26.34685 -58.31498 28058 ft 434 kts 217°
2026-04-16 22:37 -26.37251 -58.33205 28520 ft 433 kts 217°
2026-04-16 22:37 -26.39840 -58.34930 28988 ft 430 kts 217°
2026-04-16 22:38 -26.42385 -58.36628 29411 ft 429 kts 217°
2026-04-16 22:38 -26.44964 -58.38350 29822 ft 428 kts 217°
2026-04-16 22:38 -26.47490 -58.40038 30228 ft 426 kts 218°
2026-04-16 22:38 -26.50022 -58.41732 30685 ft 423 kts 217°
2026-04-16 22:39 -26.52561 -58.43428 31174 ft 419 kts 218°
2026-04-16 22:39 -26.55042 -58.45087 31593 ft 417 kts 218°
2026-04-16 22:39 -26.57507 -58.46737 31960 ft 415 kts 218°
2026-04-16 22:39 -26.59985 -58.48397 32350 ft 412 kts 218°
2026-04-16 22:40 -26.62439 -58.50041 32723 ft 410 kts 218°
2026-04-16 22:40 -26.64851 -58.51658 33070 ft 408 kts 218°
2026-04-16 22:40 -26.67300 -58.53302 33408 ft 406 kts 218°
2026-04-16 22:40 -26.69693 -58.54908 33699 ft 404 kts 219°
2026-04-16 22:41 -26.72121 -58.56540 33969 ft 404 kts 219°
2026-04-16 22:41 -26.74505 -58.58142 34200 ft 404 kts 219°
2026-04-16 22:41 -26.76918 -58.59766 34395 ft 404 kts 219°
2026-04-16 22:41 -26.79318 -58.61381 34539 ft 406 kts 219°
2026-04-16 22:42 -26.81755 -58.63024 34696 ft 407 kts 219°
2026-04-16 22:42 -26.84184 -58.64661 34869 ft 407 kts 219°
2026-04-16 22:42 -26.86624 -58.66303 35063 ft 408 kts 220°
2026-04-16 22:42 -26.89059 -58.67945 35246 ft 409 kts 220°
2026-04-16 22:43 -26.91483 -58.69581 35401 ft 410 kts 220°
2026-04-16 22:43 -26.93958 -58.71253 35577 ft 410 kts 220°
2026-04-16 22:43 -26.96387 -58.72895 35727 ft 411 kts 220°
2026-04-16 22:43 -26.98846 -58.74558 35834 ft 412 kts 220°
2026-04-16 22:44 -27.03754 -58.77872 35836 ft 412 kts 220°
2026-04-16 22:44 -27.08661 -58.81183 35838 ft 413 kts 220°
2026-04-16 22:45 -27.13611 -58.84533 35840 ft 413 kts 220°
2026-04-16 22:45 -27.18500 -58.87846 35840 ft 413 kts 220°
2026-04-16 22:46 -27.23427 -58.91194 35844 ft 413 kts 220°
2026-04-16 22:46 -27.28335 -58.94530 35841 ft 413 kts 220°
2026-04-16 22:47 -27.33278 -58.97897 35843 ft 414 kts 220°
2026-04-16 22:47 -27.38205 -59.01252 35846 ft 413 kts 220°
2026-04-16 22:48 -27.42964 -59.04795 35844 ft 408 kts 225°
2026-04-16 22:48 -27.47326 -59.08798 35844 ft 402 kts 230°
2026-04-16 22:49 -27.51291 -59.13148 35845 ft 399 kts 232°
2026-04-16 22:49 -27.55207 -59.17601 35842 ft 399 kts 232°
2026-04-16 22:50 -27.59103 -59.22037 35843 ft 399 kts 232°
2026-04-16 22:50 -27.63008 -59.26489 35844 ft 400 kts 232°
2026-04-16 22:51 -27.66917 -59.30952 35843 ft 400 kts 232°
2026-04-16 22:51 -27.70820 -59.35413 35842 ft 400 kts 232°
2026-04-16 22:52 -27.74717 -59.39873 35843 ft 401 kts 232°
2026-04-16 22:52 -27.78634 -59.44359 35850 ft 401 kts 232°
2026-04-16 22:53 -27.82529 -59.48826 35852 ft 400 kts 232°
2026-04-16 22:53 -27.86428 -59.53301 35851 ft 401 kts 232°
2026-04-16 22:54 -27.90334 -59.57791 35856 ft 401 kts 232°
2026-04-16 22:54 -27.94250 -59.62298 35858 ft 401 kts 232°
2026-04-16 22:55 -27.98177 -59.66824 35863 ft 401 kts 232°
2026-04-16 22:55 -28.02065 -59.71310 35862 ft 400 kts 232°
2026-04-16 22:56 -28.05961 -59.75813 35858 ft 400 kts 232°
2026-04-16 22:56 -28.09840 -59.80295 35851 ft 401 kts 232°
2026-04-16 22:57 -28.13734 -59.84831 35844 ft 401 kts 232°
2026-04-16 22:57 -28.17611 -59.89360 35841 ft 401 kts 232°
2026-04-16 22:58 -28.21490 -59.93901 35839 ft 401 kts 232°
2026-04-16 22:58 -28.25381 -59.98465 35840 ft 402 kts 232°
2026-04-16 22:59 -28.29248 -60.03002 35842 ft 401 kts 232°
2026-04-16 22:59 -28.33116 -60.07547 35841 ft 401 kts 231°
2026-04-16 23:00 -28.37010 -60.12128 35844 ft 402 kts 231°
2026-04-16 23:00 -28.40861 -60.16662 35846 ft 402 kts 232°
2026-04-16 23:01 -28.44745 -60.21241 35841 ft 402 kts 232°
2026-04-16 23:01 -28.48626 -60.25826 35840 ft 402 kts 231°
2026-04-16 23:02 -28.52492 -60.30392 35839 ft 402 kts 231°
2026-04-16 23:02 -28.56377 -60.34988 35841 ft 403 kts 231°
2026-04-16 23:03 -28.60247 -60.39577 35841 ft 403 kts 231°
2026-04-16 23:03 -28.64116 -60.44167 35840 ft 403 kts 231°
2026-04-16 23:04 -28.67980 -60.48755 35842 ft 403 kts 231°
2026-04-16 23:04 -28.71855 -60.53369 35841 ft 402 kts 231°
2026-04-16 23:05 -28.75717 -60.57968 35842 ft 403 kts 231°
2026-04-16 23:05 -28.79636 -60.62604 35842 ft 404 kts 230°
2026-04-16 23:06 -28.83571 -60.67210 35842 ft 404 kts 231°
2026-04-16 23:06 -28.87475 -60.71788 35844 ft 403 kts 231°
2026-04-16 23:07 -28.91398 -60.76403 35843 ft 404 kts 230°
2026-04-16 23:07 -28.95299 -60.80999 35846 ft 404 kts 230°
2026-04-16 23:08 -28.99197 -60.85599 35841 ft 403 kts 230°
2026-04-16 23:08 -29.03099 -60.90208 35845 ft 403 kts 230°
2026-04-16 23:09 -29.06992 -60.94817 35842 ft 403 kts 230°
2026-04-16 23:09 -29.10886 -60.99429 35835 ft 404 kts 230°
2026-04-16 23:10 -29.14784 -61.04098 35838 ft 405 kts 230°
2026-04-16 23:10 -29.18649 -61.08752 35838 ft 405 kts 230°
2026-04-16 23:11 -29.22538 -61.13442 35837 ft 404 kts 230°
2026-04-16 23:11 -29.26394 -61.18097 35838 ft 404 kts 230°
2026-04-16 23:12 -29.30246 -61.22757 35834 ft 404 kts 230°
2026-04-16 23:12 -29.34106 -61.27432 35836 ft 404 kts 230°
2026-04-16 23:13 -29.37976 -61.32124 35837 ft 404 kts 230°
2026-04-16 23:13 -29.41821 -61.36791 35840 ft 404 kts 230°
2026-04-16 23:14 -29.45671 -61.41465 35840 ft 404 kts 230°
2026-04-16 23:14 -29.49528 -61.46163 35842 ft 404 kts 230°
2026-04-16 23:15 -29.55280 -61.53169 35840 ft 403 kts 230°
2026-04-16 23:16 -29.59117 -61.57854 35843 ft 403 kts 230°
2026-04-16 23:16 -29.62967 -61.62557 35840 ft 404 kts 230°
2026-04-16 23:17 -29.66795 -61.67243 35846 ft 403 kts 230°
2026-04-16 23:17 -29.70634 -61.71943 35840 ft 403 kts 230°
2026-04-16 23:18 -29.74458 -61.76633 35841 ft 403 kts 230°
2026-04-16 23:18 -29.78287 -61.81340 35843 ft 403 kts 230°
2026-04-16 23:19 -29.82122 -61.86060 35842 ft 404 kts 230°
2026-04-16 23:19 -29.85946 -61.90786 35842 ft 403 kts 231°
2026-04-16 23:20 -29.89479 -61.95758 35844 ft 401 kts 234°
2026-04-16 23:20 -29.92831 -62.00889 35851 ft 401 kts 235°
2026-04-16 23:21 -29.96149 -62.05991 35858 ft 401 kts 235°
2026-04-16 23:21 -29.99494 -62.11144 35859 ft 401 kts 235°
2026-04-16 23:22 -30.02833 -62.16295 35860 ft 400 kts 235°
2026-04-16 23:22 -30.06165 -62.21443 35859 ft 400 kts 234°
2026-04-16 23:23 -30.09475 -62.26562 35858 ft 400 kts 234°
2026-04-16 23:23 -30.12816 -62.31737 35856 ft 401 kts 235°
2026-04-16 23:24 -30.16133 -62.36882 35854 ft 401 kts 235°
2026-04-16 23:24 -30.19466 -62.42059 35853 ft 401 kts 235°
2026-04-16 23:25 -30.22775 -62.47207 35851 ft 401 kts 235°
2026-04-16 23:25 -30.26103 -62.52391 35847 ft 401 kts 234°
2026-04-16 23:26 -30.29419 -62.57564 35841 ft 402 kts 234°
2026-04-16 23:26 -30.32736 -62.62750 35843 ft 401 kts 234°
2026-04-16 23:27 -30.36063 -62.67951 35842 ft 401 kts 235°
2026-04-16 23:27 -30.39362 -62.73120 35841 ft 401 kts 235°
2026-04-16 23:28 -30.42663 -62.78308 35840 ft 402 kts 235°
2026-04-16 23:28 -30.45963 -62.83510 35842 ft 401 kts 235°
2026-04-16 23:29 -30.49265 -62.88722 35844 ft 401 kts 235°
2026-04-16 23:29 -30.52561 -62.93934 35840 ft 401 kts 235°
2026-04-16 23:30 -30.55852 -62.99144 35842 ft 401 kts 235°
2026-04-16 23:30 -30.59150 -63.04373 35842 ft 401 kts 235°
2026-04-16 23:31 -30.62434 -63.09587 35845 ft 401 kts 235°
2026-04-16 23:31 -30.65723 -63.14814 35842 ft 401 kts 235°
2026-04-16 23:32 -30.68996 -63.20029 35850 ft 401 kts 235°
2026-04-16 23:32 -30.72265 -63.25244 35848 ft 401 kts 235°
2026-04-16 23:33 -30.75569 -63.30523 35852 ft 401 kts 235°
2026-04-16 23:33 -30.78846 -63.35780 35854 ft 401 kts 235°
2026-04-16 23:34 -30.82068 -63.41039 35854 ft 401 kts 235°
2026-04-16 23:34 -30.85302 -63.46337 35866 ft 401 kts 235°
2026-04-16 23:35 -30.88513 -63.51603 35876 ft 401 kts 235°
2026-04-16 23:35 -30.91757 -63.56922 35886 ft 401 kts 235°
2026-04-16 23:36 -30.95041 -63.62149 35885 ft 402 kts 234°
2026-04-16 23:36 -30.98355 -63.67403 35882 ft 402 kts 234°
2026-04-16 23:37 -31.01639 -63.72631 35875 ft 402 kts 235°
2026-04-16 23:37 -31.04936 -63.77889 35880 ft 401 kts 235°
2026-04-16 23:38 -31.08218 -63.83139 35883 ft 401 kts 235°
2026-04-16 23:38 -31.11511 -63.88412 35888 ft 401 kts 235°
2026-04-16 23:39 -31.14788 -63.93671 35888 ft 402 kts 234°
2026-04-16 23:39 -31.18067 -63.98935 35892 ft 402 kts 235°
2026-04-16 23:40 -31.21334 -64.04192 35894 ft 401 kts 235°
2026-04-16 23:40 -31.24620 -64.09491 35897 ft 402 kts 235°
2026-04-16 23:41 -31.27878 -64.14756 35899 ft 402 kts 236°
2026-04-16 23:41 -31.30874 -64.20287 35902 ft 402 kts 241°
2026-04-16 23:42 -31.33367 -64.26107 35903 ft 403 kts 246°
2026-04-16 23:42 -31.35531 -64.32137 35907 ft 402 kts 247°
2026-04-16 23:43 -31.37660 -64.38162 35915 ft 403 kts 247°
2026-04-16 23:43 -31.39793 -64.44205 35928 ft 403 kts 247°
2026-04-16 23:44 -31.41923 -64.50255 35940 ft 402 kts 247°
2026-04-16 23:44 -31.44039 -64.56280 35961 ft 402 kts 247°
2026-04-16 23:45 -31.46155 -64.62309 35988 ft 402 kts 247°
2026-04-16 23:45 -31.48280 -64.68381 36014 ft 402 kts 248°
2026-04-16 23:46 -31.50400 -64.74446 36040 ft 402 kts 248°
2026-04-16 23:46 -31.52514 -64.80513 36049 ft 404 kts 248°
2026-04-16 23:47 -31.54623 -64.86567 36042 ft 404 kts 248°
2026-04-16 23:47 -31.56744 -64.92672 36037 ft 405 kts 248°
2026-04-16 23:48 -31.58858 -64.98769 36029 ft 405 kts 248°
2026-04-16 23:48 -31.60969 -65.04868 36011 ft 405 kts 248°
2026-04-16 23:49 -31.63070 -65.10960 36000 ft 404 kts 248°
2026-04-16 23:49 -31.65183 -65.17093 35984 ft 404 kts 248°
2026-04-16 23:50 -31.67277 -65.23158 35971 ft 403 kts 248°
2026-04-16 23:50 -31.69395 -65.29290 35958 ft 404 kts 248°
2026-04-16 23:51 -31.71477 -65.35346 35941 ft 403 kts 248°
2026-04-16 23:51 -31.73572 -65.41457 35926 ft 403 kts 248°
2026-04-16 23:52 -31.75662 -65.47565 35907 ft 404 kts 249°
2026-04-16 23:52 -31.77746 -65.53672 35902 ft 404 kts 248°
2026-04-16 23:53 -31.79838 -65.59813 35893 ft 404 kts 249°
2026-04-16 23:53 -31.81915 -65.65927 35893 ft 404 kts 249°
2026-04-16 23:54 -31.83990 -65.72040 35880 ft 404 kts 249°
2026-04-16 23:54 -31.86063 -65.78160 35873 ft 404 kts 249°
2026-04-16 23:55 -31.88132 -65.84283 35858 ft 404 kts 249°
2026-04-16 23:55 -31.90204 -65.90430 35853 ft 405 kts 249°
2026-04-16 23:56 -31.92264 -65.96549 35855 ft 404 kts 249°
2026-04-16 23:56 -31.94334 -66.02704 35848 ft 404 kts 249°
2026-04-16 23:57 -31.96383 -66.08798 35849 ft 403 kts 249°
2026-04-16 23:57 -31.98442 -66.14952 35853 ft 403 kts 249°
2026-04-16 23:58 -32.00489 -66.21088 35849 ft 403 kts 249°
2026-04-16 23:58 -32.02526 -66.27209 35857 ft 403 kts 249°
2026-04-16 23:59 -32.04562 -66.33341 35859 ft 402 kts 249°
2026-04-16 23:59 -32.06593 -66.39471 35860 ft 402 kts 249°
2026-04-17 00:00 -32.08618 -66.45592 35863 ft 402 kts 249°
2026-04-17 00:00 -32.10556 -66.51763 35860 ft 401 kts 252°
2026-04-17 00:01 -32.12114 -66.58052 35861 ft 402 kts 254°
2026-04-17 00:01 -32.13626 -66.64373 35861 ft 401 kts 254°
2026-04-17 00:02 -32.15127 -66.70685 35874 ft 401 kts 255°
2026-04-17 00:02 -32.16629 -66.77023 35874 ft 400 kts 255°
2026-04-17 00:03 -32.18110 -66.83288 35879 ft 400 kts 255°
2026-04-17 00:03 -32.19604 -66.89621 35888 ft 399 kts 255°
2026-04-17 00:04 -32.21085 -66.95903 35888 ft 398 kts 255°
2026-04-17 00:04 -32.22549 -67.02139 35903 ft 398 kts 255°
2026-04-17 00:05 -32.24019 -67.08421 35904 ft 398 kts 255°
2026-04-17 00:05 -32.25489 -67.14714 35903 ft 398 kts 255°
2026-04-17 00:06 -32.26952 -67.20998 35903 ft 398 kts 255°
2026-04-17 00:06 -32.28411 -67.27279 35898 ft 398 kts 255°
2026-04-17 00:07 -32.29868 -67.33558 35892 ft 398 kts 255°
2026-04-17 00:07 -32.31328 -67.39868 35876 ft 399 kts 255°
2026-04-17 00:08 -32.32791 -67.46207 35864 ft 400 kts 255°
2026-04-17 00:08 -32.34241 -67.52512 35859 ft 400 kts 255°
2026-04-17 00:09 -32.35692 -67.58827 35854 ft 400 kts 255°
2026-04-17 00:09 -32.37146 -67.65173 35855 ft 401 kts 256°
2026-04-17 00:10 -32.38602 -67.71548 35857 ft 401 kts 256°
2026-04-17 00:10 -32.40053 -67.77919 35857 ft 401 kts 256°
2026-04-17 00:11 -32.41503 -67.84300 35856 ft 402 kts 256°
2026-04-17 00:11 -32.42942 -67.90655 35861 ft 401 kts 256°
2026-04-17 00:12 -32.44384 -67.97028 35864 ft 402 kts 256°
2026-04-17 00:12 -32.45812 -68.03360 35873 ft 401 kts 256°
2026-04-17 00:13 -32.47242 -68.09721 35882 ft 400 kts 256°
2026-04-17 00:13 -32.48666 -68.16066 35894 ft 400 kts 256°
2026-04-17 00:14 -32.50084 -68.22421 35894 ft 400 kts 256°
2026-04-17 00:14 -32.51508 -68.28820 35889 ft 400 kts 256°
2026-04-17 00:15 -32.52164 -68.31765 35892 ft 401 kts 256°
2026-04-17 00:17 -32.53294 -68.36839 35906 ft 401 kts 256°
2026-04-17 00:17 -32.54710 -68.43178 35925 ft 400 kts 256°
2026-04-17 00:18 -32.56128 -68.49566 35931 ft 401 kts 256°
2026-04-17 00:18 -32.57531 -68.55911 35931 ft 400 kts 256°
2026-04-17 00:19 -32.58947 -68.62332 35949 ft 401 kts 256°
2026-04-17 00:19 -32.60351 -68.68726 35954 ft 401 kts 257°
2026-04-17 00:20 -32.61755 -68.75136 35955 ft 401 kts 256°
2026-04-17 00:20 -32.63146 -68.81494 35987 ft 400 kts 257°
2026-04-17 00:21 -32.64539 -68.87884 36015 ft 400 kts 257°
2026-04-17 00:21 -32.65925 -68.94267 36050 ft 400 kts 256°
2026-04-17 00:22 -32.67994 -69.03810 36097 ft 400 kts 257°
2026-04-17 00:22 -32.69371 -69.10183 36148 ft 399 kts 257°
2026-04-17 00:23 -32.70744 -69.16567 36250 ft 398 kts 257°
2026-04-17 00:23 -32.72105 -69.22894 36285 ft 397 kts 257°
2026-04-17 00:24 -32.73466 -69.29249 35929 ft 396 kts 257°
2026-04-17 00:24 -32.74137 -69.32386 35427 ft 392 kts 257°
2026-04-17 00:24 -32.74802 -69.35499 34908 ft 388 kts 257°
2026-04-17 00:25 -32.75460 -69.38586 34364 ft 384 kts 257°
2026-04-17 00:25 -32.76112 -69.41657 33789 ft 382 kts 257°
2026-04-17 00:25 -32.76757 -69.44678 33192 ft 381 kts 257°
2026-04-17 00:25 -32.77398 -69.47697 32594 ft 379 kts 257°
2026-04-17 00:26 -32.78043 -69.50745 31982 ft 378 kts 257°
2026-04-17 00:26 -32.78672 -69.53722 31379 ft 376 kts 257°
2026-04-17 00:26 -32.79306 -69.56724 30756 ft 375 kts 257°
2026-04-17 00:26 -32.79938 -69.59729 30110 ft 375 kts 257°
2026-04-17 00:27 -32.80573 -69.62729 29475 ft 375 kts 257°
2026-04-17 00:27 -32.81200 -69.65705 28819 ft 375 kts 257°
2026-04-17 00:27 -32.81838 -69.68735 28148 ft 376 kts 258°
2026-04-17 00:27 -32.82468 -69.71723 27479 ft 377 kts 257°
2026-04-17 00:28 -32.83098 -69.74729 26795 ft 378 kts 258°
2026-04-17 00:28 -32.83727 -69.77743 26242 ft 375 kts 257°
2026-04-17 00:28 -32.84355 -69.80730 25808 ft 370 kts 258°
2026-04-17 00:28 -32.84961 -69.83628 25539 ft 359 kts 258°
2026-04-17 00:29 -32.85553 -69.86478 25369 ft 346 kts 258°
2026-04-17 00:29 -32.86121 -69.89198 25206 ft 334 kts 258°
2026-04-17 00:29 -32.86663 -69.91808 25042 ft 322 kts 258°
2026-04-17 00:29 -32.87190 -69.94344 24910 ft 310 kts 258°
2026-04-17 00:30 -32.87685 -69.96806 24763 ft 299 kts 262°
2026-04-17 00:30 -32.87979 -69.99169 24630 ft 287 kts 266°
2026-04-17 00:30 -32.88072 -70.01527 24350 ft 283 kts 271°
2026-04-17 00:30 -32.87974 -70.03838 23943 ft 282 kts 275°
2026-04-17 00:31 -32.87777 -70.06156 23553 ft 280 kts 275°
2026-04-17 00:31 -32.87572 -70.08459 23158 ft 279 kts 275°
2026-04-17 00:31 -32.87369 -70.10719 22772 ft 278 kts 275°
2026-04-17 00:31 -32.87165 -70.12995 22348 ft 279 kts 276°
2026-04-17 00:32 -32.86953 -70.15298 21885 ft 281 kts 276°
2026-04-17 00:32 -32.86740 -70.17612 21418 ft 283 kts 276°
2026-04-17 00:32 -32.86527 -70.19937 20933 ft 286 kts 276°
2026-04-17 00:32 -32.86309 -70.22312 20453 ft 288 kts 276°
2026-04-17 00:33 -32.86090 -70.24678 19973 ft 290 kts 277°
2026-04-17 00:33 -32.85866 -70.27069 19509 ft 291 kts 277°
2026-04-17 00:33 -32.85646 -70.29427 19089 ft 291 kts 277°
2026-04-17 00:33 -32.85422 -70.31831 18676 ft 290 kts 278°
2026-04-17 00:34 -32.85202 -70.34188 18489 ft 282 kts 278°
2026-04-17 00:34 -32.84989 -70.36483 18039 ft 285 kts 278°
2026-04-17 00:34 -32.84769 -70.38840 17330 ft 294 kts 278°
2026-04-17 00:34 -32.84541 -70.41267 16777 ft 295 kts 278°
2026-04-17 00:35 -32.84312 -70.43693 16188 ft 296 kts 278°
2026-04-17 00:35 -32.84084 -70.46123 15623 ft 300 kts 278°
2026-04-17 00:35 -32.83851 -70.48594 15009 ft 304 kts 279°
2026-04-17 00:35 -32.83617 -70.51070 14573 ft 301 kts 278°
2026-04-17 00:36 -32.83389 -70.53519 14256 ft 297 kts 279°
2026-04-17 00:36 -32.83163 -70.55933 13946 ft 292 kts 279°
2026-04-17 00:36 -32.82937 -70.58318 13605 ft 289 kts 279°
2026-04-17 00:36 -32.82713 -70.60658 13185 ft 288 kts 279°
2026-04-17 00:37 -32.82485 -70.63030 12774 ft 287 kts 279°
2026-04-17 00:37 -32.82261 -70.65365 12391 ft 285 kts 280°
2026-04-17 00:37 -32.82052 -70.67705 11997 ft 285 kts 277°
2026-04-17 00:37 -32.82368 -70.70039 11538 ft 295 kts 250°
2026-04-17 00:38 -32.83584 -70.72001 11139 ft 302 kts 227°
2026-04-17 00:38 -32.85149 -70.73673 10784 ft 301 kts 226°
2026-04-17 00:38 -32.86702 -70.75339 10357 ft 301 kts 226°
2026-04-17 00:38 -32.88235 -70.77007 10048 ft 299 kts 227°
2026-04-17 00:39 -32.89769 -70.78690 9641 ft 297 kts 227°
2026-04-17 00:39 -32.91318 -70.80306 9272 ft 299 kts 218°
2026-04-17 00:39 -32.93210 -70.81333 8867 ft 303 kts 195°
2026-04-17 00:39 -32.95288 -70.81718 8571 ft 301 kts 188°
2026-04-17 00:40 -32.97354 -70.81984 8219 ft 299 kts 187°
2026-04-17 00:40 -32.99432 -70.82237 7874 ft 297 kts 185°
2026-04-17 00:40 -33.01499 -70.82298 7541 ft 294 kts 179°
2026-04-17 00:40 -33.03525 -70.82204 7168 ft 291 kts 177°
2026-04-17 00:41 -33.05544 -70.82075 6860 ft 286 kts 177°
2026-04-17 00:41 -33.07530 -70.81950 6582 ft 282 kts 177°
2026-04-17 00:41 -33.09478 -70.81837 6248 ft 279 kts 176°
2026-04-17 00:41 -33.11409 -70.81732 6005 ft 273 kts 177°
2026-04-17 00:42 -33.13282 -70.81634 5801 ft 265 kts 177°
2026-04-17 00:42 -33.15078 -70.81541 5623 ft 257 kts 177°
2026-04-17 00:42 -33.16860 -70.81449 5366 ft 253 kts 177°
2026-04-17 00:42 -33.18611 -70.81358 5040 ft 251 kts 177°
2026-04-17 00:43 -33.20351 -70.81266 4715 ft 248 kts 177°
2026-04-17 00:43 -33.22055 -70.81177 4380 ft 238 kts 177°
2026-04-17 00:43 -33.23665 -70.81092 4098 ft 229 kts 177°
2026-04-17 00:43 -33.25227 -70.81010 3903 ft 217 kts 177°
2026-04-17 00:44 -33.26686 -70.80933 3625 ft 200 kts 177°
2026-04-17 00:44 -33.28038 -70.80862 3330 ft 187 kts 176°
2026-04-17 00:44 -33.29304 -70.80794 3060 ft 175 kts 176°
2026-04-17 00:44 -33.30469 -70.80732 2827 ft 162 kts 176°
2026-04-17 00:45 -33.31558 -70.80675 2616 ft 150 kts 176°
2026-04-17 00:45 -33.32597 -70.80619 2445 ft 148 kts 176°
2026-04-17 00:45 -33.33639 -70.80564 2266 ft 147 kts 176°
2026-04-17 00:45 -33.34655 -70.80516 2087 ft 144 kts 175°
2026-04-17 00:46 -33.35652 -70.80447 1901 ft 143 kts 176°
2026-04-17 00:46 -33.36660 -70.80396 1712 ft 142 kts 176°
2026-04-17 00:46 -33.37637 -70.80355 1581 ft 140 kts 176°
2026-04-17 00:46 -33.38537 -70.80296 1568 ft 107 kts 177°
2026-04-17 00:47 -33.39098 -70.80266 1567 ft 48 kts 177°
2026-04-17 00:47 -33.39418 -70.80249 1567 ft 43 kts 179°
2026-04-17 00:47 -33.39671 -70.80236 1566 ft 25 kts 176°
2026-04-17 00:47 -33.39840 -70.80216 1566 ft 23 kts 166°
2026-04-17 00:48 -33.39982 -70.80141 1566 ft 20 kts 150°
2026-04-17 00:48 -33.40105 -70.80055 1566 ft 19 kts 149°
2026-04-17 00:48 -33.40166 -70.79929 1566 ft 16 kts 92°
2026-04-17 00:48 -33.40231 -70.79890 1566 ft 11 kts 176°
2026-04-17 00:49 -33.40311 -70.79887 1566 ft 11 kts 177°
2026-04-17 00:49 -33.40394 -70.79881 1566 ft 12 kts 176°
2026-04-17 00:49 -33.40469 -70.79842 1566 ft 12 kts 124°
2026-04-17 00:49 -33.40446 -70.79766 1566 ft 12 kts
2026-04-17 00:50 -33.40390 -70.79768 1566 ft 0 kts 357°